This is the latest recevied weather packets stored in our database for station/object DOUGLAS. If no packets are shown the sender has not sent any weather packets the latest 10 day(s).
| Time | Temp. | Humidity | Pressure | Rain* | Wind** | Luminosity | Snow |
|---|---|---|---|---|---|---|---|
| 1788214802 | 22.22° C | 63% | 0 hPa | - | - | - | - |
| 1788214203 | 22.78° C | 60% | 0 hPa | - | - | - | - |
| 1788213603 | 22.78° C | 59% | 0 hPa | - | - | - | - |
| 1788213003 | 22.78° C | 58% | 0 hPa | - | - | - | - |
| 1788212403 | 23.33° C | 57% | 0 hPa | - | - | - | - |
| 1788211803 | 23.89° C | 56% | 0 hPa | - | - | - | - |
| 1788211208 | 23.89° C | 55% | 0 hPa | - | - | - | - |
| 1788210603 | 23.89° C | 53% | 0 hPa | - | - | - | - |
| 1788210003 | 23.89° C | 51% | 0 hPa | - | - | - | - |
| 1788209403 | 24.44° C | 46% | 0 hPa | - | - | - | - |
| 1788208803 | 24.44° C | 40% | 0 hPa | - | - | - | - |
| 1788208203 | 24.44° C | 46% | 0 hPa | - | - | - | - |
| 1788207603 | 23.89° C | 48% | 0 hPa | - | - | - | - |
| 1788207003 | 23.33° C | 48% | 0 hPa | - | - | - | - |
| 1788206404 | 23.33° C | 48% | 0 hPa | - | - | - | - |
| 1788205803 | 23.33° C | 50% | 0 hPa | - | - | - | - |
| 1788205203 | 22.78° C | 47% | 0 hPa | - | - | - | - |
| 1788204603 | 22.22° C | 49% | 0 hPa | - | - | - | - |
| 1788204003 | 22.22° C | 52% | 0 hPa | - | - | - | - |
| 1788202804 | 21.67° C | 53% | 0 hPa | - | - | - | - |
| 1788202202 | 21.67° C | 54% | 0 hPa | - | - | - | - |
| 1788201602 | 20.56° C | 55% | 0 hPa | - | - | - | - |
| 1788201003 | 20° C | 61% | 0 hPa | - | - | - | - |
| 1788200403 | 20.56° C | 59% | 0 hPa | - | - | - | - |
| 1788199803 | 19.44° C | 62% | 0 hPa | - | - | - | - |
* Rain since midnight (hover to see other rain measurements)
** Current wind speed in m/s (hover to see current wind gust speed)